Zurück zum Katalog

MOKHA-1

AktivWissenschaftSSO
NORAD 67274·PAYLOAD·🇷🇺 Russia
Dieser Satellitenname wurde noch nicht durch offizielle Quellen bestätigt.

Gestartet Dec 28, 2025 von Vostochny Cosmodrome

Loading…

Nächste Überflüge (nächste 24 Stunden)

TLE

AktuellSource: Space-Track

Epoche: Sep 14, 2026, 10:53 UTC

1 67274U 25313AC  26257.45355726  .00004894  00000-0  20760-3 0  9992
2 67274  97.3860 330.6125 0015475  54.8768 305.3917 15.23468747 39536

Verfolge MOKHA-1 in Echtzeit mit AllMySat

Download on the App Store